This is the latest recevied weather packets stored in our database for station/object XE2KK-10. If no packets are shown the sender has not sent any weather packets the latest 10 day(s).
| Time | Temp. | Humidity | Pressure | Rain* | Wind** | Luminosity | Snow |
|---|---|---|---|---|---|---|---|
| 1777904053 | 21.67° C | 61% | 1014.1 hPa | 0 mm | - | 252 W/m² | - |
| 1777903753 | 21.11° C | 61% | 1014.4 hPa | 0 mm | - | 215 W/m² | - |
| 1777903452 | 21.11° C | 63% | 1014.1 hPa | 0 mm | - | 95 W/m² | - |
| 1777903152 | 20.56° C | 63% | 1013.8 hPa | 0 mm | - | 187 W/m² | - |
| 1777902853 | 20.56° C | 63% | 1014.1 hPa | 0 mm | - | 179 W/m² | - |
| 1777902553 | 20.56° C | 64% | 1013.9 hPa | 0 mm | - | 146 W/m² | - |
| 1777902253 | 20.56° C | 64% | 1014.3 hPa | 0 mm | - | 178 W/m² | - |
| 1777901952 | 20.56° C | 64% | 1014.3 hPa | 0 mm | - | 197 W/m² | - |
| 1777901652 | 20° C | 64% | 1014 hPa | 0 mm | - | 186 W/m² | - |
| 1777901352 | 20° C | 65% | 1014.5 hPa | 0 mm | - | 158 W/m² | - |
| 1777901053 | 20° C | 65% | 1014.4 hPa | 0 mm | - | 120 W/m² | - |
| 1777900752 | 20° C | 65% | 1014.3 hPa | 0 mm | - | 112 W/m² | - |
| 1777900452 | 20° C | 65% | 1014.1 hPa | 0 mm | - | 98 W/m² | - |
| 1777900152 | 20° C | 65% | 1013.8 hPa | 0 mm | - | 82 W/m² | - |
| 1777899852 | 20° C | 65% | 1013.9 hPa | 0 mm | - | 65 W/m² | - |
| 1777899552 | 20° C | 65% | 1013.8 hPa | 0 mm | - | 54 W/m² | - |
| 1777899253 | 20° C | 65% | 1014.1 hPa | 0 mm | - | 48 W/m² | - |
| 1777898952 | 20° C | 64% | 1014 hPa | 0 mm | - | 42 W/m² | - |
| 1777898652 | 20° C | 65% | 1013.9 hPa | 0 mm | - | 36 W/m² | - |
| 1777898352 | 19.44° C | 65% | 1013.8 hPa | 0 mm | - | 27 W/m² | - |
| 1777898055 | 19.44° C | 65% | 1013.8 hPa | 0 mm | - | 24 W/m² | - |
| 1777897752 | 19.44° C | 66% | 1013.8 hPa | 0 mm | - | 21 W/m² | - |
| 1777897453 | 19.44° C | 65% | 1013.7 hPa | 0 mm | - | 16 W/m² | - |
| 1777897153 | 19.44° C | 65% | 1013.7 hPa | 0 mm | - | 10 W/m² | - |
| 1777896852 | 19.44° C | 66% | 1013.8 hPa | 0 mm | - | 7 W/m² | - |
* Rain latest hour (hover to see other rain measurements)
** Current wind speed in m/s (hover to see current wind gust speed)